Regional Weather Roundup
Issued by NWS Austin/San Antonio, TX

Home | Current Version | Previous Version | Text Only | Print | Product List | Glossary On
Versions: 1 2 3 4 5 6 7 8 9 10 11 12 13 14 15 16 17 18 19 20 21 22 23 24 25 26 27 28 29 30 31 32 33 34 35 36 37 38 39 40 41 42 43 44 45 46 47 48 49 50
344
ASUS44 KEWX 152210
RWREWX
SOUTH TEXAS REGIONAL WEATHER ROUNDUP
NATIONAL WEATHER SERVICE AUSTIN/SAN ANTONIO TX
400 PM CST MON JAN 15 2018

NOTE: "FAIR" INDICATED FEW OR NO CLOUDS BELOW 12,000 FEET WITH NO
SIGNIFICANT WEATHER AND/OR OBSTRUCTIONS TO VISIBILITY.

* - THESE STATIONS ARE NOT NWS OR FAA STATIONS...AND ARE NOT SUBJECT
    TO NWS AND FAA QUALITY CONTROL.

TXZ171-172-183>190-152300-
TEXAS HILL COUNTRY AND EDWARDS PLATEAU

CITY           SKY/WX    TMP DP  RH WIND       PRES   REMARKS
JUNCTION       SUNNY     66  45  46 S10       30.16R
*LLANO         PTSUNNY   66  45  45 S8        30.22R
BURNET         PTSUNNY   63  47  55 SW14G22   30.22R
*HORSESHOE BAY MOSUNNY   67  47  48 S8G17     30.19S
*KERRVILLE     CLOUDY    63  47  56 S10G16    30.19S
*FREDERICKSBRG MOSUNNY   63  44  50 S14G21    30.18S
*ROCKSPRINGS     N/A     63  48  59 SE10G16   30.21S
*BOERNE STAGE  MOSUNNY   63  45  51 S10G16    30.19S
*CASTROVILLE   MOSUNNY   70  44  38 S10       30.18S
HONDO          MOSUNNY   72  47  40 S12       30.16F
*UVALDE        MOSUNNY   66  48  52 SE9       30.16S
DEL RIO        SUNNY     68  46  45 SE14G20   30.11F
LAUGHLIN AFB   NOT AVBL
CARRIZO SPRGS  MOSUNNY   70  48  46 S15       30.13S
*EAGLE PASS    CLEAR     72  46  40 S9G18     30.13S
*FAITH RANCH   SUNNY     72  48  43 SE10G20   30.13R
$$

TXZ173-191>194-202-209-217>225-228-152300-
CENTRAL AND SOUTH CENTRAL TEXAS

CITY           SKY/WX    TMP DP  RH WIND       PRES   REMARKS
GEORGETOWN     CLOUDY    66  48  52 S9        30.21S
AUSTIN/BERGSTM PTSUNNY   67  50  54 S9        30.19S
AUSTIN/MABRY   PTSUNNY   67  48  50 S7        30.20S
*AUSTIN/EXEC   PTSUNNY   66  48  52 S10       30.21R
*LAGO VISTA    PTSUNNY   66  48  53 SW7       30.20S
SAN MARCOS     CLOUDY    68  48  48 S12       30.19S
NEW BRAUNFELS  CLOUDY    69  47  45 S17       30.17S
RANDOLPH AFB   CLOUDY    69  48  46 S12       30.17S
PT SAN ANTONIO PTSUNNY   70  47  44 S8        30.15S
SAN ANTONIO    PTSUNNY   68  46  45 S8        30.18R
STINSON FIELD  PTSUNNY   71  46  40 S13       30.15S
*LA GRANGE     CLOUDY    68  51  56 S9        30.19S
*GIDDINGS      CLOUDY   N/A N/A N/A S10G17    30.22R
*GONZALES      CLOUDY    68  53  57 SE14      30.19S
$$

TXZ163>164-176>182-195>201-210>213-226-227-235-152300-
SOUTHEAST TEXAS

CITY           SKY/WX    TMP DP  RH WIND       PRES   REMARKS
COLLEGE STN    CLOUDY    66  49  54 SE9       30.23S
*BRYAN         CLOUDY    64  47  53 SE8       30.24S
*CALDWELL      CLOUDY    65  47  52 S6        30.22S
*CROCKETT        N/A     59  46  63 CALM      30.30S
*BRENHAM       CLOUDY    67  49  51 SE8       30.23S
HUNTSVILLE     CLOUDY    64  46  52 CALM      30.25S
CONROE         CLOUDY    64  47  53 S9        30.26S
HOUSTON BUSH   PTSUNNY   63  47  55 SE12      30.27R
HOUSTON HOBBY  FAIR      64  48  56 SE12      30.26S
*HOUSTON SW AP FAIR      64  49  57 SE10      30.27S
PEARLAND       FAIR      63  49  60 SE13      30.29S
HOUSTON HOOKS  CLOUDY    63  48  58 E14G21    30.25S
ELLINGTON FLD  MOSUNNY   64  48  55 E14       30.29S
SUGAR LAND     PTSUNNY   64  49  57 SE12      30.25S
*HOUSTON EXEC  CLOUDY    64  50  59 SE13      30.25S
*CLEVELAND MUN CLOUDY    65  39  39 S5        30.28S
*WHARTON       PTSUNNY   64  47  55 S12       30.25S
*COLUMBUS      CLOUDY    65  49  57 S9        30.24S
*EAGLE LAKE    CLOUDY    65  52  62 S9        30.24R
$$

TXZ214>216-236>238-152300-
THE UPPER TEXAS COAST

CITY           SKY/WX    TMP DP  RH WIND       PRES   REMARKS
*ORANGE        FAIR      61  41  48 S8        30.34S
PORT ARTHUR    FAIR      61  40  45 SE13      30.31S
GALVESTON      FAIR      61  50  67 E14       30.29S
ANGLETON       PTSUNNY   64  50  60 SE13      30.27R
*BAY CITY      CLOUDY    65  52  63 SE12      30.25S
PALACIOS       CLOUDY    64  54  69 SE9       30.24F
$$

TXZ229>234-239>247-152300-
TEXAS COASTAL BEND AND RIO GRANDE PLAINS

CITY           SKY/WX    TMP DP  RH WIND       PRES   REMARKS
VICTORIA       CLOUDY    63  54  72 SE13      30.22F
*BEEVILLE      CLOUDY    71  45  40 SE12      30.17F
ROCKPORT       FAIR      64  55  72 SE9       30.21S
*PORT ARANSAS  NOT AVBL
*PORT LAVACA   CLOUDY    60  57  89 E6        30.23F
*INGLESIDE     CLOUDY    70  56  62 S14       30.20S
CORPUS CHRISTI PTSUNNY   71  53  52 SE21      30.18F
CORPUS NAS     PTSUNNY   70  57  63 SE14      30.20F
*ROBSTOWN      PTSUNNY   71  50  47 SE16      30.18F
ALICE          PTSUNNY   72  51  47 SE16G25   30.16S
KINGSVILLE NAS PTSUNNY   71  51  49 SE20G26   30.17F
COTULLA        PTSUNNY   72  45  37 S12       30.14S
LAREDO         SUNNY     74  50  42 S15       30.13S
$$

TXZ248>255-152300-
DEEP SOUTH TEXAS

CITY           SKY/WX    TMP DP  RH WIND       PRES   REMARKS
BROWNSVILLE    CLOUDY    73  55  53 SE18      30.19F
PORT ISABEL    CLOUDY    71  55  56 SE15G25   30.18F
*SOUTH PADRE   NOT AVBL
HARLINGEN      CLOUDY    72  53  51 S18       30.16F
*HEBBRONVILLE  PTSUNNY   71  47  41 S14G20    30.15S
MCALLEN        PTSUNNY   74  54  49 SE18G29   30.14F
*WESLACO       CLOUDY    72  52  49 S13G23    30.15F
FALFURRIAS     CLOUDY    74  50  42 S14       30.15S
EDINBURG       PTSUNNY   75  51  42 SE17G24   30.15F
*ZAPATA        FAIR      75  46  35 SE13G21   30.11F
$$

TXZ213>215-236>238-242>244-246-247-251-254-255-152300-
CMAN STATIONS

STATION/POSITION TIME  TEMP    WIND        PRES    WAVE
                       AIR SEA DIR/SP/G            HT/PER
                 (UTC) (F)     (DEG/KT/KT) (MB)    (FT/S)
SABINE PASS      2148   54 51  120/ 12/ 12 1028.2
SEA RIM ST PARK  2200   55     110/  9/ 11 1027.0
NORTH JETTY/GLS  2136      51  100/ 12/ 12 1025.3
EAGLE POINT      2148   54 52  130/  8/  9 1025.7
MORGANS POINT    2148   58 50  120/ 10/ 13 1025.6
PORT O`CONNOR    2148   59 54  100/  4/  5 1023.3
MALAQUITE BEACH  2148   61 57  140/ 10/ 11 1022.1
BAFFIN BAY       2148   65 61  140/ 13/ 16 1022.2
PORT ISABEL      2148   68 59  160/  7/ 11 1022.2
$$




USA.gov is the U.S. government's official web portal to all federal, state and local government web resources and services.